Location: Newark
(54.9353°N, 24.1167°E)
Time: 04:39:06
(UTC+00:00)

X-37B - Visible Passes

Search period start: 29 September 2020 00:00
Search period end: 09 October 2020 00:00
Orbit: 386 x 387 km, 45.0° (Epoch: 18 September)

Date Brightness Start Highest point End Pass type
(mag) Time Alt. Az. Time Alt. Az. Time Alt. Az.
05 Oct 3.3 17:55:49 10° SSW 17:55:54 10° SSW 17:55:54 10° SSW visible
06 Oct 3.1 16:58:22 10° S 16:59:01 10° SSE 16:59:39 10° SSE visible
07 Oct 2.9 17:34:43 10° SSW 17:36:16 14° S 17:36:16 14° S visible
08 Oct 3.0 16:36:41 10° SSW 16:38:10 13° S 16:39:38 10° SE visible
08 Oct 3.5 18:12:17 10° SW 18:12:31 11° SW 18:12:31 11° SW visible
